ONEWEB-0050 (45453 NORAD) Tracking and Keplerian Element Data

This shows tracking and keplerian element data for the satellite.

Feedback or suggestion? Click here.




ElementValue
Catalog45453
NameONEWEB-0050
Epoch Orbit183
Epoch Day93.91667824
Epoch Year2020
RAAN134.6024
Inclination87.3994
Eccentricity0.0023147
Argument of Perigee262.3363
Mean Anonmoly186.4878
Mean Motion15.34611366
Decay Rate0.00040611
L11 45453U 20020AF 20093.91667824 .00040611 00000-0 11961-2 0 9994
L22 45453 87.3994 134.6024 0023147 262.3363 186.4878 15.34611366 1835

Live tracking and technical data element details for ONEWEB-0050 (NORAD 45453). ONEWEB-0050 can be tracked NOW for your location showing map with azimuth and elevation plus other details from your city location.

Track the satellite on the map from your city or location and see movement details for azimuth, elevation, latitude, longitude, range, height, and movement on the map or in text.







IsCatalogInMostPopularTable: catalog: 45453, numindb: 3
Update: records affected: 1



GetName: 45453 ONEWEB-0050

Hit Count: updated at: Mon, 06 Apr 2020 12:15:25 GMT